| time (UTC) | temp F | wind direction | speed MPH | gust MPH | rain 1hr in | rain 24hr in | rain mn in | humidity % | barometer mb |
| 20260503205326 | 79 | 6 | 4.0 | 7.0 | 0.00 | 0.00 | 0.00 | 40 | 1014.4 |
| 20260503204823 | 79 | 282 | 5.0 | 6.0 | 0.00 | 0.00 | 0.00 | 41 | 1014.6 |
| 20260503204320 | 79 | 159 | 3.0 | 3.0 | 0.00 | 0.00 | 0.00 | 41 | 1014.8 |
| 20260503203817 | 79 | 244 | 4.0 | 6.0 | 0.00 | 0.00 | 0.00 | 42 | 1014.5 |
| 20260503203315 | 78 | 140 | 1.0 | 3.0 | 0.00 | 0.00 | 0.00 | 43 | 1014.6 |
| 20260503202811 | 78 | 233 | 3.0 | 5.0 | 0.00 | 0.00 | 0.00 | 43 | 1014.7 |
| 20260503202310 | 79 | 353 | 6.0 | 14.0 | 0.00 | 0.00 | 0.00 | 42 | 1014.7 |
| 20260503201807 | 78 | 164 | 1.0 | 2.0 | 0.00 | 0.00 | 0.00 | 44 | 1014.9 |
| 20260503201304 | 79 | 177 | 6.0 | 8.0 | 0.00 | 0.00 | 0.00 | 42 | 1015.0 |
| 20260503200802 | 79 | 155 | 1.0 | 2.0 | 0.00 | 0.00 | 0.00 | 43 | 1015.0 |
| 20260503200257 | 78 | 205 | 3.0 | 5.0 | 0.00 | 0.00 | 0.00 | 45 | 1015.0 |
| 20260503195755 | 78 | 175 | 3.0 | 8.0 | 0.00 | 0.00 | 0.00 | 44 | 1014.9 |
| 20260503195251 | 78 | 254 | 3.0 | 5.0 | 0.00 | 0.00 | 0.00 | 44 | 1015.1 |
| 20260503194749 | 78 | 126 | 2.0 | 3.0 | 0.00 | 0.00 | 0.00 | 45 | 1015.3 |
| 20260503194245 | 77 | 164 | 1.0 | 2.0 | 0.00 | 0.00 | 0.00 | 46 | 1015.2 |
| 20260503193741 | 77 | 146 | 4.0 | 7.0 | 0.00 | 0.00 | 0.00 | 46 | 1015.4 |
| 20260503193237 | 77 | 14 | 3.0 | 5.0 | 0.00 | 0.00 | 0.00 | 48 | 1015.4 |
| 20260503192733 | 77 | 231 | 7.0 | 8.0 | 0.00 | 0.00 | 0.00 | 44 | 1015.5 |
| 20260503192228 | 77 | 116 | 3.0 | 3.0 | 0.00 | 0.00 | 0.00 | 46 | 1015.4 |
| 20260503191725 | 77 | 100 | 4.0 | 6.0 | 0.00 | 0.00 | 0.00 | 45 | 1015.4 |
| 20260503191222 | 76 | 143 | 1.0 | 7.0 | 0.00 | 0.00 | 0.00 | 47 | 1015.6 |
| 20260503190719 | 77 | 144 | 4.0 | 7.0 | 0.00 | 0.00 | 0.00 | 46 | 1015.8 |
| 20260503190215 | 76 | 342 | 4.0 | 6.0 | 0.00 | 0.00 | 0.00 | 47 | 1015.8 |
| 20260503185713 | 76 | 177 | 3.0 | 5.0 | 0.00 | 0.00 | 0.00 | 45 | 1015.7 |
| 20260503185208 | 76 | 78 | 3.0 | 5.0 | 0.00 | 0.00 | 0.00 | 48 | 1016.0 |
| 20260503184703 | 76 | 112 | 2.0 | 7.0 | 0.00 | 0.00 | 0.00 | 48 | 1016.1 |
| 20260503184200 | 76 | 118 | 1.0 | 7.0 | 0.00 | 0.00 | 0.00 | 48 | 1016.1 |
| 20260503183656 | 75 | 86 | 3.0 | 7.0 | 0.00 | 0.00 | 0.00 | 48 | 1016.2 |
| 20260503183154 | 76 | 115 | 4.0 | 7.0 | 0.00 | 0.00 | 0.00 | 48 | 1016.4 |
| 20260503182651 | 74 | 159 | 0.0 | 2.0 | 0.00 | 0.00 | 0.00 | 49 | 1015.9 |
| 20260503182150 | 74 | 130 | 4.0 | 7.0 | 0.00 | 0.00 | 0.00 | 50 | 1016.3 |
| 20260503181646 | 74 | 136 | 5.0 | 6.0 | 0.00 | 0.00 | 0.00 | 51 | 1016.3 |
| 20260503181143 | 73 | 189 | 2.0 | 7.0 | 0.00 | 0.00 | 0.00 | 51 | 1016.3 |
| 20260503180640 | 73 | 165 | 6.0 | 9.0 | 0.00 | 0.00 | 0.00 | 51 | 1016.5 |
| 20260503180138 | 73 | 34 | 5.0 | 11.0 | 0.00 | 0.00 | 0.00 | 52 | 1016.3 |
| 20260503175635 | 73 | 9 | 5.0 | 7.0 | 0.00 | 0.00 | 0.00 | 51 | 1016.2 |
| 20260503175132 | 74 | 64 | 5.0 | 7.0 | 0.00 | 0.00 | 0.00 | 52 | 1016.3 |
| 20260503174623 | 73 | 130 | 3.0 | 6.0 | 0.00 | 0.00 | 0.00 | 52 | 1016.5 |
| 20260503174120 | 72 | 155 | 1.0 | 6.0 | 0.00 | 0.00 | 0.00 | 52 | 1016.4 |
| 20260503173615 | 71 | 249 | 3.0 | 5.0 | 0.00 | 0.00 | 0.00 | 55 | 1016.5 |
| 20260503173112 | 71 | 178 | 1.0 | 2.0 | 0.00 | 0.00 | 0.00 | 57 | 1016.3 |
| 20260503172609 | 71 | 220 | 5.0 | 6.0 | 0.00 | 0.00 | 0.00 | 52 | 1016.5 |
| 20260503172106 | 71 | 62 | 4.0 | 6.0 | 0.00 | 0.00 | 0.00 | 52 | 1016.6 |
| 20260503171602 | 71 | 183 | 2.0 | 2.0 | 0.00 | 0.00 | 0.00 | 53 | 1016.6 |
| 20260503171100 | 72 | 95 | 5.0 | 8.0 | 0.00 | 0.00 | 0.00 | 51 | 1016.6 |
| 20260503170556 | 71 | 183 | 2.0 | 3.0 | 0.00 | 0.00 | 0.00 | 52 | 1016.5 |
| 20260503150949 | 60 | 167 | 0.0 | 1.0 | 0.00 | 0.00 | 0.00 | 74 | 1017.0 |
| 20260503150445 | 59 | 157 | 0.0 | 0.0 | 0.00 | 0.00 | 0.00 | 78 | 1016.9 |
| 20260503131331 | 51 | 151 | 0.0 | 0.0 | 0.00 | 0.00 | 0.00 | 90 | 1017.0 |
| 20260503130829 | 51 | 151 | 0.0 | 0.0 | 0.00 | 0.00 | 0.00 | 90 | 1016.8 |
| 20260503130327 | 51 | 149 | 0.0 | 0.0 | 0.00 | 0.00 | 0.00 | 90 | 1016.8 |
| 20260503110720 | 53 | 150 | 0.0 | 1.0 | 0.00 | 0.00 | 0.00 | 84 | 1017.0 |
| 20260503110218 | 53 | 151 | 0.0 | 0.0 | 0.00 | 0.00 | 0.00 | 83 | 1017.1 |
| 20260503100144 | 55 | 112 | 2.0 | 2.0 | 0.00 | 0.00 | 0.00 | 79 | 1017.0 |
| 20260503081538 | 57 | 148 | 0.0 | 0.0 | 0.00 | 0.00 | 0.00 | 73 | 1017.2 |
| 20260503081036 | 57 | 147 | 0.0 | 1.0 | 0.00 | 0.00 | 0.00 | 73 | 1017.2 |
| 20260503080531 | 57 | 149 | 0.0 | 1.0 | 0.00 | 0.00 | 0.00 | 72 | 1017.0 |
| 20260503072506 | 60 | 138 | 1.0 | 1.0 | 0.00 | 0.00 | 0.00 | 65 | 1017.2 |
| 20260503072003 | 60 | 106 | 2.0 | 2.0 | 0.00 | 0.00 | 0.00 | 64 | 1017.1 |
| 20260503071500 | 60 | 122 | 1.0 | 1.0 | 0.00 | 0.00 | 0.00 | 64 | 1017.0 |
| 20260503070955 | 60 | 134 | 1.0 | 2.0 | 0.00 | 0.00 | 0.00 | 65 | 1017.0 |
| 20260503070453 | 60 | 132 | 1.0 | 1.0 | 0.00 | 0.00 | 0.00 | 64 | 1017.1 |
| 20260503054906 | 61 | 143 | 0.0 | 1.0 | 0.00 | 0.00 | 0.00 | 69 | 1016.8 |
| 20260503054402 | 61 | 118 | 2.0 | 2.0 | 0.00 | 0.00 | 0.00 | 68 | 1016.7 |
| 20260503053900 | 60 | 120 | 1.0 | 2.0 | 0.00 | 0.00 | 0.00 | 69 | 1016.7 |
| 20260503053358 | 60 | 131 | 1.0 | 2.0 | 0.00 | 0.00 | 0.00 | 70 | 1016.8 |
| 20260503052853 | 60 | 128 | 1.0 | 2.0 | 0.00 | 0.00 | 0.00 | 70 | 1016.8 |
| 20260503052351 | 60 | 145 | 0.0 | 1.0 | 0.00 | 0.00 | 0.00 | 71 | 1016.7 |
| 20260503051847 | 60 | 154 | 1.0 | 2.0 | 0.00 | 0.00 | 0.00 | 71 | 1016.8 |
| 20260503051343 | 60 | 153 | 1.0 | 2.0 | 0.00 | 0.00 | 0.00 | 72 | 1016.8 |
| 20260503050841 | 60 | 147 | 0.0 | 1.0 | 0.00 | 0.00 | 0.00 | 71 | 1016.8 |
| 20260503050336 | 60 | 164 | 0.0 | 2.0 | 0.00 | 0.00 | 0.00 | 71 | 1016.7 |
| 20260503045834 | 60 | 147 | 1.0 | 2.0 | 0.00 | 0.00 | 0.00 | 71 | 1016.7 |
| 20260503045332 | 60 | 152 | 1.0 | 1.0 | 0.00 | 0.00 | 0.00 | 70 | 1016.8 |
| 20260503044828 | 60 | 142 | 1.0 | 1.0 | 0.00 | 0.00 | 0.00 | 70 | 1016.8 |
| 20260503044325 | 61 | 152 | 0.0 | 1.0 | 0.00 | 0.00 | 0.00 | 70 | 1016.7 |
| 20260503043822 | 61 | 153 | 1.0 | 1.0 | 0.00 | 0.00 | 0.00 | 70 | 1016.6 |
| 20260503043319 | 61 | 147 | 0.0 | 1.0 | 0.00 | 0.00 | 0.00 | 70 | 1016.7 |
| 20260503042815 | 61 | 148 | 0.0 | 0.0 | 0.00 | 0.00 | 0.00 | 69 | 1016.5 |
| 20260503042312 | 62 | 146 | 0.0 | 1.0 | 0.00 | 0.00 | 0.00 | 68 | 1016.3 |
| 20260503041808 | 62 | 146 | 1.0 | 1.0 | 0.00 | 0.00 | 0.00 | 68 | 1016.2 |
| 20260503041306 | 62 | 146 | 0.0 | 1.0 | 0.00 | 0.00 | 0.00 | 67 | 1016.5 |
| 20260503040803 | 62 | 144 | 0.0 | 1.0 | 0.00 | 0.00 | 0.00 | 67 | 1016.3 |
| 20260503040301 | 63 | 142 | 1.0 | 1.0 | 0.00 | 0.00 | 0.00 | 66 | 1016.3 |
| 20260503035757 | 63 | 146 | 0.0 | 1.0 | 0.00 | 0.00 | 0.00 | 66 | 1016.0 |
| 20260503035255 | 63 | 140 | 0.0 | 1.0 | 0.00 | 0.00 | 0.00 | 65 | 1016.0 |
| 20260503034752 | 64 | 139 | 0.0 | 1.0 | 0.00 | 0.00 | 0.00 | 65 | 1016.0 |
| 20260503034249 | 64 | 137 | 0.0 | 1.0 | 0.00 | 0.00 | 0.00 | 63 | 1015.9 |
| 20260503033746 | 65 | 131 | 1.0 | 2.0 | 0.00 | 0.00 | 0.00 | 63 | 1015.8 |
| 20260503033244 | 66 | 126 | 1.0 | 2.0 | 0.00 | 0.00 | 0.00 | 62 | 1015.8 |
| 20260503032742 | 66 | 125 | 2.0 | 2.0 | 0.00 | 0.00 | 0.00 | 62 | 1015.7 |
| 20260503032240 | 67 | 154 | 0.0 | 1.0 | 0.00 | 0.00 | 0.00 | 62 | 1015.8 |
| 20260503031737 | 67 | 160 | 0.0 | 1.0 | 0.00 | 0.00 | 0.00 | 59 | 1015.7 |
| 20260503031235 | 67 | 152 | 0.0 | 1.0 | 0.00 | 0.00 | 0.00 | 61 | 1015.7 |
| 20260503030731 | 68 | 172 | 1.0 | 1.0 | 0.00 | 0.00 | 0.00 | 60 | 1015.7 |
| 20260503030227 | 68 | 126 | 0.0 | 1.0 | 0.00 | 0.00 | 0.00 | 59 | 1015.7 |
| 20260503025724 | 69 | 150 | 0.0 | 1.0 | 0.00 | 0.00 | 0.00 | 59 | 1015.6 |
| 20260503025222 | 69 | 135 | 1.0 | 1.0 | 0.00 | 0.00 | 0.00 | 59 | 1015.4 |
| 20260503024718 | 70 | 150 | 1.0 | 7.0 | 0.00 | 0.00 | 0.00 | 55 | 1015.3 |
| 20260503024216 | 71 | 124 | 0.0 | 1.0 | 0.00 | 0.00 | 0.00 | 53 | 1015.4 |
| 20260503023712 | 71 | 149 | 0.0 | 3.0 | 0.00 | 0.00 | 0.00 | 53 | 1015.2 |
| 20260503023204 | 71 | 329 | 2.0 | 3.0 | 0.00 | 0.00 | 0.00 | 52 | 1015.2 |
| 20260503022700 | 72 | 124 | 1.0 | 5.0 | 0.00 | 0.00 | 0.00 | 52 | 1015.2 |
| 20260503022200 | 72 | 180 | 4.0 | 8.0 | 0.00 | 0.00 | 0.00 | 51 | 1015.3 |
| 20260503021657 | 72 | 111 | 2.0 | 2.0 | 0.00 | 0.00 | 0.00 | 52 | 1015.2 |
| 20260503021153 | 73 | 191 | 3.0 | 5.0 | 0.00 | 0.00 | 0.00 | 51 | 1015.2 |
| 20260503020651 | 73 | 23 | 3.0 | 6.0 | 0.00 | 0.00 | 0.00 | 51 | 1015.2 |
| 20260503020148 | 73 | 4 | 3.0 | 7.0 | 0.00 | 0.00 | 0.00 | 51 | 1015.3 |
| 20260503015645 | 73 | 348 | 6.0 | 8.0 | 0.00 | 0.00 | 0.00 | 50 | 1015.0 |
| 20260503015142 | 73 | 160 | 1.0 | 7.0 | 0.00 | 0.00 | 0.00 | 50 | 1015.2 |
| 20260503014637 | 74 | 123 | 4.0 | 5.0 | 0.00 | 0.00 | 0.00 | 49 | 1015.2 |
| 20260503014136 | 74 | 132 | 2.0 | 3.0 | 0.00 | 0.00 | 0.00 | 49 | 1015.2 |
| 20260503013633 | 74 | 340 | 4.0 | 7.0 | 0.00 | 0.00 | 0.00 | 48 | 1015.3 |
| 20260503013131 | 75 | 332 | 8.0 | 14.0 | 0.00 | 0.00 | 0.00 | 48 | 1015.2 |
| 20260503012627 | 75 | 187 | 2.0 | 3.0 | 0.00 | 0.00 | 0.00 | 46 | 1015.1 |
| 20260503012124 | 75 | 161 | 1.0 | 7.0 | 0.00 | 0.00 | 0.00 | 46 | 1015.5 |
| 20260503011621 | 76 | 155 | 2.0 | 6.0 | 0.00 | 0.00 | 0.00 | 46 | 1015.5 |
| 20260503011118 | 76 | 158 | 1.0 | 2.0 | 0.00 | 0.00 | 0.00 | 46 | 1015.4 |
| 20260503010614 | 76 | 116 | 1.0 | 5.0 | 0.00 | 0.00 | 0.00 | 45 | 1015.4 |
| 20260503010112 | 76 | 32 | 5.0 | 7.0 | 0.00 | 0.00 | 0.00 | 45 | 1015.5 |
| 20260503005608 | 76 | 69 | 3.0 | 5.0 | 0.00 | 0.00 | 0.00 | 45 | 1015.6 |
| 20260503005106 | 75 | 300 | 5.0 | 7.0 | 0.00 | 0.00 | 0.00 | 46 | 1015.5 |
| 20260503004602 | 76 | 44 | 5.0 | 11.0 | 0.00 | 0.00 | 0.00 | 45 | 1015.4 |
| 20260503004101 | 76 | 241 | 4.0 | 6.0 | 0.00 | 0.00 | 0.00 | 46 | 1015.6 |
| 20260503003556 | 76 | 359 | 5.0 | 7.0 | 0.00 | 0.00 | 0.00 | 45 | 1015.5 |
| 20260503003054 | 77 | 150 | 1.0 | 6.0 | 0.00 | 0.00 | 0.00 | 45 | 1015.5 |
| 20260503002550 | 77 | 190 | 2.0 | 5.0 | 0.00 | 0.00 | 0.00 | 46 | 1015.6 |
| 20260503002048 | 77 | 155 | 2.0 | 6.0 | 0.00 | 0.00 | 0.00 | 45 | 1015.6 |
| 20260503001543 | 77 | 160 | 1.0 | 5.0 | 0.00 | 0.00 | 0.00 | 45 | 1015.6 |
| 20260503001041 | 77 | 164 | 4.0 | 6.0 | 0.00 | 0.00 | 0.00 | 45 | 1015.7 |
| 20260503000538 | 77 | 115 | 2.0 | 7.0 | 0.00 | 0.00 | 0.00 | 45 | 1015.6 |
| 20260503000035 | 77 | 76 | 4.0 | 7.0 | 0.00 | 0.00 | 0.00 | 45 | 1015.8 |
| 20260502235532 | 76 | 218 | 2.0 | 3.0 | 0.00 | 0.00 | 0.00 | 45 | 1015.9 |
| 20260502235030 | 76 | 218 | 3.0 | 5.0 | 0.00 | 0.00 | 0.00 | 45 | 1015.8 |
| 20260502234526 | 75 | 151 | 1.0 | 3.0 | 0.00 | 0.00 | 0.00 | 45 | 1015.8 |
| 20260502234023 | 76 | 25 | 5.0 | 8.0 | 0.00 | 0.00 | 0.00 | 45 | 1015.9 |
| 20260502233518 | 76 | 112 | 2.0 | 9.0 | 0.00 | 0.00 | 0.00 | 45 | 1016.1 |
| 20260502233016 | 76 | 170 | 3.0 | 5.0 | 0.00 | 0.00 | 0.00 | 44 | 1016.2 |
| 20260502232512 | 76 | 11 | 5.0 | 7.0 | 0.00 | 0.00 | 0.00 | 44 | 1016.2 |
| 20260502232009 | 76 | 212 | 3.0 | 5.0 | 0.00 | 0.00 | 0.00 | 43 | 1016.4 |
| 20260502231506 | 76 | 246 | 4.0 | 8.0 | 0.00 | 0.00 | 0.00 | 43 | 1016.2 |
| 20260502231004 | 75 | 113 | 2.0 | 7.0 | 0.00 | 0.00 | 0.00 | 44 | 1016.6 |
| 20260502230502 | 76 | 40 | 3.0 | 6.0 | 0.00 | 0.00 | 0.00 | 43 | 1016.6 |
| 20260502230000 | 76 | 185 | 3.0 | 7.0 | 0.00 | 0.00 | 0.00 | 43 | 1016.8 |
| 20260502225455 | 76 | 176 | 0.0 | 6.0 | 0.00 | 0.00 | 0.00 | 44 | 1016.8 |
| 20260502224952 | 76 | 173 | 5.0 | 7.0 | 0.00 | 0.00 | 0.00 | 45 | 1016.7 |
| 20260502224449 | 77 | 143 | 3.0 | 5.0 | 0.00 | 0.00 | 0.00 | 45 | 1016.7 |
| 20260502223946 | 76 | 220 | 3.0 | 7.0 | 0.00 | 0.00 | 0.00 | 46 | 1016.7 |
| 20260502223444 | 75 | 169 | 5.0 | 7.0 | 0.00 | 0.00 | 0.00 | 47 | 1016.8 |
| 20260502222941 | 75 | 201 | 3.0 | 6.0 | 0.00 | 0.00 | 0.00 | 48 | 1016.9 |
| 20260502222439 | 74 | 145 | 2.0 | 6.0 | 0.00 | 0.00 | 0.00 | 50 | 1017.0 |
| 20260502221934 | 74 | 237 | 7.0 | 13.0 | 0.00 | 0.00 | 0.00 | 50 | 1017.2 |
| 20260502221431 | 75 | 124 | 1.0 | 7.0 | 0.00 | 0.00 | 0.00 | 51 | 1017.2 |
| 20260502220928 | 74 | 78 | 2.0 | 5.0 | 0.00 | 0.00 | 0.00 | 55 | 1017.0 |
| 20260502220423 | 74 | 314 | 2.0 | 6.0 | 0.00 | 0.00 | 0.00 | 52 | 1017.0 |
| 20260502215920 | 74 | 173 | 3.0 | 11.0 | 0.00 | 0.00 | 0.00 | 52 | 1017.3 |
| 20260502215418 | 74 | 259 | 5.0 | 7.0 | 0.00 | 0.00 | 0.00 | 52 | 1017.2 |
| 20260502214914 | 74 | 194 | 2.0 | 7.0 | 0.00 | 0.00 | 0.00 | 53 | 1017.1 |
| 20260502214411 | 73 | 312 | 4.0 | 7.0 | 0.00 | 0.00 | 0.00 | 54 | 1017.5 |
| 20260502213909 | 73 | 99 | 3.0 | 6.0 | 0.00 | 0.00 | 0.00 | 53 | 1017.5 |
| 20260502213405 | 73 | 317 | 3.0 | 8.0 | 0.00 | 0.00 | 0.00 | 54 | 1017.1 |
| 20260502212904 | 73 | 206 | 2.0 | 8.0 | 0.00 | 0.00 | 0.00 | 53 | 1017.4 |
| 20260502212403 | 72 | 164 | 1.0 | 6.0 | 0.00 | 0.00 | 0.00 | 55 | 1017.4 |
| 20260502211859 | 73 | 295 | 6.0 | 9.0 | 0.00 | 0.00 | 0.00 | 53 | 1017.5 |
| 20260502211359 | 71 | 154 | 4.0 | 8.0 | 0.00 | 0.00 | 0.00 | 56 | 1017.5 |
| 20260502210858 | 73 | 355 | 9.0 | 10.0 | 0.00 | 0.00 | 0.00 | 55 | 1017.7 |
| 20260502210354 | 73 | 25 | 5.0 | 7.0 | 0.00 | 0.00 | 0.00 | 54 | 1017.6 |
| 20260502205852 | 72 | 189 | 1.0 | 5.0 | 0.00 | 0.00 | 0.00 | 55 | 1017.7 |